Jardin Guanabara Heliport

SIGA · Rio de Janeiro, Brazylia

Historia METAR SIGA · Jardin Guanabara Heliport

Poniżej widzisz METAR-y z ostatnich kilku dni. Wybierz rok, aby przeglądać starsze METAR-y, począwszy od roku 2007.

24 czerwca 2024

Czas Kod Pogoda Temp. Widoczność Sufit Wiatr METAR/SPECI
06:00
V
19 °C 10 km+ - 040° 040° 2 kt METAR SBGL 240900Z 04002KT CAVOK 19/17 Q1014
05:00
V
18 °C 10 km+ - 350° 350° 2 kt METAR SBGL 240800Z 35002KT CAVOK 18/16 Q1013
04:00
V
19 °C 10 km+ - 010° 010° 2 kt METAR SBGL 240700Z 01002KT CAVOK 19/16 Q1013
03:00
V
20 °C 10 km+ - 050° 050° 2 kt METAR SBGL 240600Z 05002KT CAVOK 20/16 Q1013
02:00
V
20 °C 10 km+ - 070° 070° 2 kt METAR SBGL 240500Z 07002KT CAVOK 20/17 Q1013
01:00
V
21 °C 10 km+ - 080° 080° 4 kt METAR SBGL 240400Z 08004KT CAVOK 21/17 Q1014
00:00
V
22 °C 10 km+ - 140° 140° 2 kt METAR SBGL 240300Z 14002KT CAVOK 22/17 Q1014

23 czerwca 2024

Czas Kod Pogoda Temp. Widoczność Sufit Wiatr METAR/SPECI
23:00
V
22 °C 10 km+ - 170° 170° 2 kt METAR SBGL 240200Z 17002KT CAVOK 22/17 Q1014
22:00
V
22 °C 10 km+ - 120° 120° 2 kt METAR SBGL 240100Z 12002KT CAVOK 22/17 Q1014
21:00
V
24 °C 10 km+ - 140° 140° 2 kt METAR SBGL 240000Z 14002KT CAVOK 24/17 Q1014
20:00
V
25 °C 10 km+ - 070° 070° 3 kt METAR SBGL 232300Z 07003KT CAVOK 25/18 Q1014
19:00
V
26 °C 10 km+ - 020° 020° 4 kt METAR SBGL 232200Z 02004KT CAVOK 26/18 Q1013
18:00
V
26 °C 10 km+ - 040° 040° 5 kt METAR SBGL 232100Z 04005KT CAVOK 26/17 Q1013
17:00
V
30 °C 10 km+ - 020° 020° 4 kt METAR SBGL 232000Z 02004KT CAVOK 30/16 Q1013
16:00
V
32 °C 10 km+ - 340° 340° 7 kt METAR SBGL 231900Z 34007KT CAVOK 32/16 Q1013
15:00
V
33 °C 10 km+ - 360° 360° 5 kt METAR SBGL 231800Z 36005KT 9999 FEW040 33/14 Q1013
14:00
V
32 °C 10 km+ - 320° 320° 9 kt METAR SBGL 231700Z 32009KT 9999 FEW045 32/15 Q1013
13:00
V
32 °C 10 km+ - 320° 320° 11 kt METAR SBGL 231600Z 32011KT CAVOK 32/14 Q1014
12:00
V
32 °C 10 km+ - 320° 320° 9 kt METAR SBGL 231500Z 32009KT CAVOK 32/15 Q1015
11:00
V
30 °C 10 km+ - 350° 350° 5 kt METAR SBGL 231400Z 35005KT CAVOK 30/17 Q1015
10:00
V
29 °C 10 km+ - 300° 300° 4 kt METAR SBGL 231300Z 30004KT CAVOK 29/16 Q1016
09:00
V
27 °C 10 km+ - 190° 190° 1 kt METAR SBGL 231200Z 19001KT CAVOK 27/16 Q1016
08:00
V
23 °C 10 km+ - 200° 200° 2 kt METAR SBGL 231100Z 20002KT CAVOK 23/19 Q1015
07:00
V
18 °C 10 km+ - Var Var 2 kt METAR SBGL 231000Z VRB02KT CAVOK 18/16 Q1015
06:00
V
18 °C 10 km+ - 170° 170° 3 kt METAR SBGL 230900Z 17003KT 130V190 CAVOK 18/16 Q1014
05:00
V
18 °C 10 km+ - 140° 140° 3 kt METAR SBGL 230800Z 14003KT CAVOK 18/17 Q1014
04:00
V
19 °C 10 km+ - 160° 160° 4 kt METAR SBGL 230700Z 16004KT CAVOK 19/17 Q1014
03:00
V
19 °C 10 km+ - 140° 140° 4 kt METAR SBGL 230600Z 14004KT CAVOK 19/17 Q1014
02:00
V
18 °C 10 km+ - 120° 120° 2 kt METAR SBGL 230500Z 12002KT CAVOK 18/16 Q1015
01:00
V
19 °C 10 km+ - Var Var 1 kt METAR SBGL 230400Z VRB01KT CAVOK 19/17 Q1015
00:00
V
20 °C 10 km+ - 120° 120° 2 kt METAR SBGL 230300Z 12002KT CAVOK 20/17 Q1015

22 czerwca 2024

Czas Kod Pogoda Temp. Widoczność Sufit Wiatr METAR/SPECI
23:00
V
20 °C 10 km+ - 130° 130° 4 kt METAR SBGL 230200Z 13004KT CAVOK 20/16 Q1015
22:00
V
22 °C 10 km+ - 080° 080° 6 kt METAR SBGL 230100Z 08006KT CAVOK 22/16 Q1015
21:00
V
23 °C 10 km+ - 080° 080° 6 kt METAR SBGL 230000Z 08006KT CAVOK 23/16 Q1015
20:00
V
24 °C 10 km+ - 100° 100° 8 kt METAR SBGL 222300Z 10008KT CAVOK 24/15 Q1015
19:00
V
24 °C 10 km+ - 080° 080° 4 kt METAR SBGL 222200Z 08004KT CAVOK 24/15 Q1015
18:00
V
25 °C 10 km+ - 100° 100° 3 kt METAR SBGL 222100Z 10003KT CAVOK 25/15 Q1014
17:00
V
28 °C 10 km+ - 090° 090° 5 kt METAR SBGL 222000Z 09005KT CAVOK 28/13 Q1014
16:00
V
31 °C 10 km+ - 070° 070° 8 kt METAR SBGL 221900Z 07008KT CAVOK 31/11 Q1014
15:00
V
31 °C 10 km+ - 060° 060° 7 kt METAR SBGL 221800Z 06007KT CAVOK 31/12 Q1014
14:00
V
31 °C 10 km+ - 070° 070° 6 kt METAR SBGL 221700Z 07006KT 9999 FEW014 31/12 Q1014
13:00
V
31 °C 10 km+ - 060° 060° 6 kt METAR SBGL 221600Z 06006KT 9999 FEW014 31/11 Q1015
12:00
V
30 °C 10 km+ - 120° 120° 4 kt METAR SBGL 221500Z 12004KT CAVOK 30/16 Q1017
11:00
V
28 °C 10 km+ - 060° 060° 6 kt METAR SBGL 221400Z 06006KT CAVOK 28/17 Q1018
10:00
V
26 °C 10 km+ - 060° 060° 3 kt METAR SBGL 221300Z 06003KT CAVOK 26/16 Q1019
09:00
V
23 °C 10 km+ - 130° 130° 6 kt METAR SBGL 221200Z 13006KT CAVOK 23/18 Q1018
08:00
V
21 °C 10 km+ - 070° 070° 6 kt METAR SBGL 221100Z 07006KT CAVOK 21/18 Q1018
07:00
M
17 °C 5 km - 080° 080° 2 kt METAR SBGL 221000Z 08002KT 5000 BR FEW046 17/16 Q1018
06:00
M
18 °C 5 km - 140° 140° 2 kt METAR SBGL 220900Z 14002KT 5000 BR FEW010 18/16 Q1017
05:00
I
19 °C 4,5 km - 350° 350° 3 kt METAR SBGL 220800Z 35003KT 4500 BR FEW005 19/18 Q1017
04:00
I
19 °C 4 km - 310° 310° 2 kt METAR SBGL 220700Z 31002KT 4000 BR NSC 19/18 Q1017
03:00
I
19 °C 4 km - 350° 350° 3 kt METAR SBGL 220600Z 35003KT 4000 BR NSC 19/18 Q1017
Zgłoś zmianę